GW1261 Weather Reports


Display with metric or nautical units.
time (UTC)temp
F
wind
direction
speed
MPH
gust
MPH
rain 1hr
in
rain 24hr
in
rain mn
in
humidity
%
barometer
mb
20260903074231 85 156 0.0 0.0 0.00 0.00 0.00 82 972.3
20260903073724 85 156 0.0 0.0 0.00 0.00 0.00 83 972.5
20260903073220 85 156 0.0 0.0 0.00 0.00 0.00 83 972.5
20260903072715 86 156 0.0 0.0 0.00 0.00 0.00 81 972.6
20260903072212 86 156 0.0 0.0 0.00 0.00 0.00 82 972.6
20260903071707 87 156 0.0 0.0 0.00 0.00 0.00 81 972.8
20260903071203 87 156 0.0 0.0 0.00 0.00 0.00 81 972.6
20260903070657 86 156 0.0 0.0 0.00 0.00 0.00 81 972.7
20260903070153 86 359 0.0 0.0 0.00 0.00 0.00 80 972.9
20260903065653 86 18 0.0 1.0 0.00 0.00 0.00 80 973.1
20260903065147 86 357 0.0 0.0 0.00 0.00 0.00 81 973.1
20260903064646 86 358 0.0 0.0 0.00 0.00 0.00 81 973.5
20260903064142 86 357 0.0 0.0 0.00 0.00 0.00 81 973.4
20260903063638 86 27 0.0 0.0 0.00 0.00 0.00 81 973.4
20260903063132 86 9 0.0 0.0 0.00 0.00 0.00 82 973.5
20260903062628 86 19 0.0 0.0 0.00 0.00 0.00 81 973.4
20260903062123 87 69 0.0 1.0 0.00 0.00 0.00 79 973.7
20260903061618 87 167 0.0 0.0 0.00 0.00 0.00 79 973.7
20260903061118 88 167 0.0 0.0 0.00 0.00 0.00 79 973.6
20260903060613 89 164 0.0 0.0 0.00 0.00 0.00 78 973.6
20260903060108 89 170 0.0 0.0 0.00 0.00 0.00 80 974.1
20260903055606 89 170 0.0 0.0 0.00 0.00 0.00 81 974.1
20260903055104 89 170 0.0 0.0 0.00 0.00 0.00 81 974.2
20260903054559 89 167 0.0 0.0 0.00 0.00 0.00 81 974.5
20260903054055 89 167 0.0 0.0 0.00 0.00 0.00 77 974.4
20260903053550 88 167 0.0 0.0 0.00 0.00 0.00 82 974.4
20260903053047 88 166 0.0 0.0 0.00 0.00 0.00 76 974.6
20260903052542 87 166 0.0 0.0 0.00 0.00 0.00 80 974.5
20260903052038 86 144 0.0 0.0 0.00 0.00 0.00 78 974.8
20260903051537 87 137 0.0 1.0 0.00 0.00 0.00 78 974.8
20260903051033 86 77 0.0 0.0 0.00 0.00 0.00 79 975.0
20260903050532 86 163 0.0 0.0 0.00 0.00 0.00 77 975.2
20260903050028 87 158 0.0 2.0 0.00 0.00 0.00 79 975.0
20260903045527 86 148 0.0 0.0 0.00 0.00 0.00 80 974.7
20260903045024 86 153 0.0 0.0 0.00 0.00 0.00 82 975.0
20260903044519 85 142 0.0 2.0 0.00 0.00 0.00 81 975.2
20260903044015 85 67 1.0 3.0 0.00 0.00 0.00 79 975.1
20260903043510 85 160 0.0 0.0 0.00 0.00 0.00 82 975.2
20260903043009 85 51 0.0 0.0 0.00 0.00 0.00 82 975.3
20260903042504 85 132 1.0 2.0 0.00 0.00 0.00 81 975.4
20260903042000 85 186 0.0 3.0 0.00 0.00 0.00 82 975.4
20260903041457 85 244 0.0 0.0 0.00 0.00 0.00 82 975.5
20260903040952 85 224 0.0 1.0 0.00 0.00 0.00 81 975.7
20260903040450 85 205 1.0 1.0 0.00 0.00 0.00 82 975.7
20260903035947 85 241 0.0 1.0 0.00 0.00 0.00 81 975.7
20260903035442 85 234 0.0 0.0 0.00 0.00 0.00 81 975.8
20260903034938 85 235 0.0 0.0 0.00 0.00 0.00 80 975.7
20260903034432 84 235 0.0 0.0 0.00 0.00 0.00 81 975.7
20260903033927 85 235 0.0 0.0 0.00 0.00 0.00 83 975.6
20260903033423 84 234 0.0 0.0 0.00 0.00 0.00 85 975.7
20260903032918 84 233 0.0 0.0 0.00 0.00 0.00 82 975.9
20260903032413 84 235 0.0 0.0 0.00 0.00 0.00 84 976.0
20260903031908 83 235 0.0 0.0 0.00 0.00 0.00 86 975.8
20260903031407 83 234 0.0 0.0 0.00 0.00 0.00 83 976.0
20260903030903 83 235 0.0 0.0 0.00 0.00 0.00 84 975.8
20260903030359 83 235 0.0 0.0 0.00 0.00 0.00 86 976.0
20260903025854 83 234 0.0 0.0 0.00 0.00 0.00 85 975.9
20260903025349 82 235 0.0 0.0 0.00 0.00 0.00 89 976.0
20260903024844 82 235 0.0 0.0 0.00 0.00 0.00 89 976.3
20260903024338 82 235 0.0 0.0 0.00 0.00 0.00 89 976.3
20260903023833 81 235 0.0 0.0 0.00 0.00 0.00 90 976.2
20260903023329 80 235 0.0 0.0 0.00 0.00 0.00 91 976.2
20260903022824 80 235 0.0 0.0 0.00 0.00 0.00 91 976.1
20260903022323 79 235 0.0 0.0 0.00 0.00 0.00 93 976.2
20260903021817 79 235 0.0 0.0 0.00 0.00 0.00 91 976.4
20260903021313 78 235 0.0 0.0 0.00 0.00 0.00 93 976.3
20260903020812 78 235 0.0 0.0 0.00 0.00 0.00 93 976.2
20260903020307 78 235 0.0 0.0 0.00 0.00 0.00 93 976.1
20260903015802 79 235 0.0 0.0 0.00 0.00 0.00 91 976.3
20260903015257 79 235 0.0 0.0 0.00 0.00 0.00 93 976.1
20260903014753 78 235 0.0 0.0 0.00 0.00 0.00 94 976.2
20260903014252 78 235 0.0 0.0 0.00 0.00 0.00 95 976.2
20260903013748 78 235 0.0 0.0 0.00 0.00 0.00 95 976.2
20260903013247 78 235 0.0 0.0 0.00 0.00 0.00 94 976.1
20260903012745 77 235 0.0 0.0 0.00 0.00 0.00 96 976.0
20260903012245 77 235 0.0 0.0 0.00 0.00 0.00 96 976.0
20260903011739 77 235 0.0 0.0 0.00 0.00 0.00 95 976.0
20260903011233 77 235 0.0 0.0 0.00 0.00 0.00 96 976.0
20260903010729 76 235 0.0 0.0 0.00 0.00 0.00 97 976.0
20260903010229 76 235 0.0 0.0 0.00 0.00 0.00 97 976.0
20260903005728 76 235 0.0 0.0 0.00 0.00 0.00 98 975.7
20260903005223 76 235 0.0 0.0 0.00 0.00 0.00 98 975.8
20260903004719 76 235 0.0 0.0 0.00 0.00 0.00 99 975.8
20260903004214 76 235 0.0 0.0 0.00 0.00 0.00 99 975.8
20260903003710 77 235 0.0 0.0 0.00 0.00 0.00 99 975.7
20260903003205 76 235 0.0 0.0 0.00 0.00 0.00 99 975.6
20260903002659 76 234 0.0 0.0 0.00 0.00 0.00 99 975.5
20260903002154 76 234 0.0 0.0 0.00 0.00 0.00 99 975.5
20260903001648 76 234 0.0 0.0 0.00 0.00 0.00 99 975.4
20260903001143 75 234 0.0 0.0 0.00 0.00 0.00 99 975.5
20260903000639 75 233 0.0 0.0 0.00 0.00 0.00 99 975.4
20260903000138 75 234 0.0 0.0 0.00 0.00 0.00 99 975.3
20260902235637 75 234 0.0 0.0 0.00 0.00 0.00 99 975.1
20260902235132 75 234 0.0 0.0 0.00 0.00 0.00 99 975.1
20260902234626 75 233 0.0 0.0 0.00 0.00 0.00 99 974.9
20260902234125 75 233 0.0 0.0 0.00 0.00 0.00 99 975.1
20260902233620 75 233 0.0 0.0 0.00 0.00 0.00 99 975.0
20260902233114 75 234 0.0 0.0 0.00 0.00 0.00 99 975.1
20260902232613 75 234 0.0 0.0 0.00 0.00 0.00 99 975.0
20260902232108 75 234 0.0 0.0 0.00 0.00 0.00 99 974.9
20260902231608 75 234 0.0 0.0 0.00 0.00 0.00 99 975.2
20260902231107 75 234 0.0 0.0 0.00 0.00 0.00 99 974.9
20260902230602 75 234 0.0 0.0 0.00 0.00 0.00 99 974.9
20260902230101 0 0.0 0.0 0.00 0.00 0.00 974.9
20260902225556 75 234 0.0 0.0 0.00 0.00 0.00 99 974.9
20260902225056 75 234 0.0 0.0 0.00 0.00 0.00 99 974.8
20260902224554 75 234 0.0 0.0 0.00 0.00 0.00 99 974.9
20260902224050 75 234 0.0 0.0 0.00 0.00 0.00 99 974.9
20260902223547 75 234 0.0 0.0 0.00 0.00 0.00 99 975.1
20260902223046 75 234 0.0 0.0 0.00 0.00 0.00 99 974.9
20260902222544 75 234 0.0 0.0 0.00 0.00 0.00 99 974.9
20260902222044 75 234 0.0 0.0 0.00 0.00 0.00 99 974.9
20260902221538 75 234 0.0 0.0 0.00 0.00 0.00 99 974.9
20260902221033 75 234 0.0 0.0 0.00 0.00 0.00 99 974.9
20260902220528 75 234 0.0 0.0 0.00 0.00 0.00 99 974.8
20260902220023 75 234 0.0 0.0 0.00 0.00 0.00 99 974.7
20260902215519 0 0.0 0.0 0.00 0.00 0.00 974.8
20260902215014 0 0.0 0.0 0.00 0.00 0.00 974.6
20260902214514 0 0.0 0.0 0.00 0.00 0.00 974.7
20260902214013 0 0.0 0.0 0.00 0.00 0.00 974.7
20260902213509 0 0.0 0.0 0.00 0.00 0.00 974.3
20260902213008 0 0.0 0.0 0.00 0.00 0.00 974.8
20260902212504 0 0.0 0.0 0.00 0.00 0.00 974.5
20260902212000 0 0.0 0.0 0.00 0.00 0.00 974.5
20260902211455 0 0.0 0.0 0.00 0.00 0.00 974.4
20260902210950 0 0.0 0.0 0.00 0.00 0.00 974.5
20260902210445 0 0.0 0.0 0.00 0.00 0.00 974.7
20260902205943 0 0.0 0.0 0.00 0.00 0.00 974.6
20260902205439 0 0.0 0.0 0.00 0.00 0.00 974.6
20260902204934 0 0.0 0.0 0.00 0.00 0.00 974.4
20260902204434 0 0.0 0.0 0.00 0.00 0.00 974.7
20260902203929 0 0.0 0.0 0.00 0.00 0.00 974.3
20260902203425 0 0.0 0.0 0.00 0.00 0.00 974.6
20260902202924 0 0.0 0.0 0.00 0.00 0.00 974.5
20260902202420 0 0.0 0.0 0.00 0.00 0.00 974.8
20260902201916 0 0.0 0.0 0.00 0.00 0.00 974.7
20260902201411 0 0.0 0.0 0.00 0.00 0.00 974.6
20260902200906 0 0.0 0.0 0.00 0.00 0.00 974.7
20260902200401 0 0.0 0.0 0.00 0.00 0.00 974.8
20260902195856 0 0.0 0.0 0.00 0.00 0.00 974.7
20260902195355 0 0.0 0.0 0.00 0.00 0.00 974.7
20260902194845 0 0.0 0.0 0.00 0.00 0.00 974.9
20260902194339 0 0.0 0.0 0.00 0.00 0.00 974.8
20260902193834 0 0.0 0.0 0.00 0.00 0.00 974.8
20260902193330 0 0.0 0.0 0.00 0.00 0.00 974.9
20260902192829 0 0.0 0.0 0.00 0.00 0.00 975.0
20260902192327 0 0.0 0.0 0.00 0.00 0.00 974.8
20260902191822 0 0.0 0.0 0.00 0.00 0.00 974.9
20260902191318 0 0.0 0.0 0.00 0.00 0.00 975.0
20260902190813 0 0.0 0.0 0.00 0.00 0.00 975.1
20260902190312 0 0.0 0.0 0.00 0.00 0.00 975.3
20260902185809 0 0.0 0.0 0.00 0.00 0.00 975.0
20260902185306 0 0.0 0.0 0.00 0.00 0.00 975.1
20260902184759 0 0.0 0.0 0.00 0.00 0.00 975.1
20260902184254 0 0.0 0.0 0.00 0.00 0.00 975.0
20260902183750 0 0.0 0.0 0.00 0.00 0.00 975.3
20260902183246 0 0.0 0.0 0.00 0.00 0.00 975.3
20260902182742 0 0.0 0.0 0.00 0.00 0.00 975.3
20260902182238 0 0.0 0.0 0.00 0.00 0.00 975.5
20260902181735 0 0.0 0.0 0.00 0.00 0.00 975.3
20260902181234 0 0.0 0.0 0.00 0.00 0.00 975.6
20260902180729 0 0.0 0.0 0.00 0.00 0.00 975.4
20260902180224 0 0.0 0.0 0.00 0.00 0.00 975.4
20260902175719 0 0.0 0.0 0.00 0.00 0.00 975.4
20260902175215 0 0.0 0.0 0.00 0.00 0.00 975.4
20260902174711 0 0.0 0.0 0.00 0.00 0.00 975.5
20260902174207 0 0.0 0.0 0.00 0.00 0.00 975.7
20260902173702 0 0.0 0.0 0.00 0.00 0.00 975.8
20260902173156 0 0.0 0.0 0.00 0.00 0.00 975.7
20260902172651 0 0.0 0.0 0.00 0.00 0.00 975.7
20260902172150 0 0.0 0.0 0.00 0.00 0.00 975.7
20260902171645 0 0.0 0.0 0.00 0.00 0.00 975.8
20260902171141 0 0.0 0.0 0.00 0.00 0.00 976.0
20260902170637 0 0.0 0.0 0.00 0.00 0.00 975.9
20260902170132 0 0.0 0.0 0.00 0.00 0.00 976.1
20260902165627 0 0.0 0.0 0.00 0.00 0.00 975.9
20260902165127 0 0.0 0.0 0.00 0.00 0.00 976.2
20260902164622 0 0.0 0.0 0.00 0.00 0.00 976.1
20260902164121 0 0.0 0.0 0.00 0.00 0.00 976.2
20260902163616 0 0.0 0.0 0.00 0.00 0.00 976.1
20260902163115 0 0.0 0.0 0.00 0.00 0.00 976.1
20260902162614 0 0.0 0.0 0.00 0.00 0.00 976.3
20260902162109 0 0.0 0.0 0.00 0.00 0.00 976.3
20260902161604 0 0.0 0.0 0.00 0.00 0.00 976.1
20260902161100 0 0.0 0.0 0.00 0.00 0.00 976.2
20260902160556 0 0.0 0.0 0.00 0.00 0.00 976.1
20260902160051 0 0.0 0.0 0.00 0.00 0.00 976.2
20260902155544 0 0.0 0.0 0.00 0.00 0.00 976.6
20260902155043 0 0.0 0.0 0.00 0.00 0.00 976.3
20260902154538 0 0.0 0.0 0.00 0.00 0.00 976.4
20260902154033 0 0.0 0.0 0.00 0.00 0.00 976.3
20260902153531 77 234 0.0 0.0 0.00 0.00 0.00 97 976.4
20260902153028 77 234 0.0 0.0 0.00 0.00 0.00 97 976.5
20260902152524 77 234 0.0 0.0 0.00 0.00 0.00 97 976.4
20260902152019 77 234 0.0 0.0 0.00 0.00 0.00 97 976.5
20260902151515 77 234 0.0 0.0 0.00 0.00 0.00 97 976.4
20260902151014 77 234 0.0 0.0 0.00 0.00 0.00 97 976.4
20260902150509 77 234 0.0 0.0 0.00 0.00 0.00 97 976.5
20260902150004 77 234 0.0 0.0 0.00 0.00 0.00 97 976.3
20260902145459 77 234 0.0 0.0 0.00 0.00 0.00 97 976.4
20260902144953 77 234 0.0 0.0 0.00 0.00 0.00 97 976.3
20260902144450 77 234 0.0 0.0 0.00 0.00 0.00 97 976.3
20260902143944 77 234 0.0 0.0 0.00 0.00 0.00 97 976.3
20260902143440 77 232 0.0 0.0 0.00 0.00 0.00 97 976.1
20260902142935 77 232 0.0 0.0 0.00 0.00 0.00 97 975.9
20260902142430 77 232 0.0 0.0 0.00 0.00 0.00 97 975.8
20260902141926 77 232 0.0 0.0 0.00 0.00 0.00 97 976.0
20260902141421 77 232 0.0 0.0 0.00 0.00 0.00 97 975.6
20260902140920 77 232 0.0 0.0 0.00 0.00 0.00 97 975.4
20260902140416 77 232 0.0 0.0 0.00 0.00 0.00 97 975.5
20260902135910 77 232 0.0 0.0 0.00 0.00 0.00 97 975.3
20260902135406 77 232 0.0 0.0 0.00 0.00 0.00 97 975.4
20260902134904 77 232 0.0 0.0 0.00 0.00 0.00 97 975.3
20260902134400 77 232 0.0 0.0 0.00 0.00 0.00 97 974.8
20260902133855 77 232 0.0 0.0 0.00 0.00 0.00 97 975.2
20260902133355 77 232 0.0 0.0 0.00 0.00 0.00 97 975.1
20260902132850 77 232 0.0 0.0 0.00 0.00 0.00 97 975.1
20260902132345 78 231 0.0 0.0 0.00 0.00 0.00 95 975.0
20260902131841 78 231 0.0 0.0 0.00 0.00 0.00 95 974.8
20260902131338 78 231 0.0 0.0 0.00 0.00 0.00 95 974.7
20260902130836 78 231 0.0 0.0 0.00 0.00 0.00 95 975.0
20260902130333 78 231 0.0 0.0 0.00 0.00 0.00 95 974.7
20260902125827 78 231 0.0 0.0 0.00 0.00 0.00 95 974.6
20260902125323 78 231 0.0 0.0 0.00 0.00 0.00 95 974.7
20260902124820 78 231 0.0 0.0 0.00 0.00 0.00 95 974.7
20260902124315 78 231 0.0 0.0 0.00 0.00 0.00 95 974.6
20260902123810 78 231 0.0 0.0 0.00 0.00 0.00 95 974.4
20260902123306 78 232 0.0 0.0 0.00 0.00 0.00 95 974.4
20260902122805 78 229 0.0 0.0 0.00 0.00 0.00 95 974.3
20260902122305 78 232 0.0 0.0 0.00 0.00 0.00 95 974.5
20260902121800 78 232 0.0 0.0 0.00 0.00 0.00 95 974.4
20260902121255 78 232 0.0 0.0 0.00 0.00 0.00 95 974.2
20260902120751 78 232 0.0 0.0 0.00 0.00 0.00 95 974.2
20260902120248 80 232 0.0 0.0 0.00 0.00 0.00 96 974.0
20260902115747 80 232 0.0 0.0 0.00 0.00 0.00 96 974.0
20260902115244 80 232 0.0 0.0 0.00 0.00 0.00 96 974.2
20260902114740 80 232 0.0 0.0 0.00 0.00 0.00 96 973.9
20260902114235 80 232 0.0 0.0 0.00 0.00 0.00 96 973.8
20260902113730 80 232 0.0 0.0 0.00 0.00 0.00 96 973.6
20260902113225 80 232 0.0 0.0 0.00 0.00 0.00 96 973.7
20260902112724 79 233 0.0 0.0 0.00 0.00 0.00 92 973.6
20260902112222 79 233 0.0 0.0 0.00 0.00 0.00 92 973.5
20260902111717 80 233 0.0 0.0 0.00 0.00 0.00 94 973.4
20260902111213 80 231 0.0 0.0 0.00 0.00 0.00 93 973.4
20260902110709 80 231 0.0 0.0 0.00 0.00 0.00 93 973.4
20260902110204 80 231 0.0 0.0 0.00 0.00 0.00 93 973.4
20260902105704 80 231 0.0 0.0 0.00 0.00 0.00 93 973.2
20260902105159 82 224 0.0 0.0 0.00 0.00 0.00 93 973.2
20260902104654 82 224 0.0 0.0 0.00 0.00 0.00 93 973.2
20260902104150 82 224 0.0 0.0 0.00 0.00 0.00 93 973.1
20260902103649 82 224 0.0 0.0 0.00 0.00 0.00 93 973.3
20260902103144 82 224 0.0 0.0 0.00 0.00 0.00 93 973.2
20260902102641 82 224 0.0 0.0 0.00 0.00 0.00 93 973.3
20260902102138 82 224 0.0 0.0 0.00 0.00 0.00 93 972.9
20260902101633 82 224 0.0 0.0 0.00 0.00 0.00 93 973.1
20260902101132 82 231 0.0 0.0 0.00 0.00 0.00 91 972.8
20260902100627 82 231 0.0 0.0 0.00 0.00 0.00 91 972.9
20260902100122 82 231 0.0 0.0 0.00 0.00 0.00 91 972.9
20260902095621 82 231 0.0 0.0 0.00 0.00 0.00 91 972.9
20260902095120 82 231 0.0 0.0 0.00 0.00 0.00 91 972.8
20260902094616 82 231 0.0 0.0 0.00 0.00 0.00 91 972.9
20260902094112 82 231 0.0 0.0 0.00 0.00 0.00 91 972.8
20260902093606 82 231 0.0 0.0 0.00 0.00 0.00 91 972.9
20260902093100 82 242 0.0 0.0 0.00 0.00 0.00 90 973.0
20260902092555 83 241 0.0 0.0 0.00 0.00 0.00 90 972.9
20260902092050 83 237 0.0 0.0 0.00 0.00 0.00 91 973.0
20260902091545 83 237 0.0 0.0 0.00 0.00 0.00 91 973.2
20260902091041 83 236 0.0 0.0 0.00 0.00 0.00 89 973.1
20260902090537 83 244 0.0 0.0 0.00 0.00 0.00 88 973.2
20260902090036 83 238 0.0 0.0 0.00 0.00 0.00 87 973.1
20260902085530 83 238 0.0 0.0 0.00 0.00 0.00 86 973.0
20260902085026 83 239 0.0 0.0 0.00 0.00 0.00 87 973.2
20260902084522 83 239 0.0 0.0 0.00 0.00 0.00 87 973.2
20260902084017 84 231 0.0 0.0 0.00 0.00 0.00 86 973.0
20260902083513 84 232 0.0 0.0 0.00 0.00 0.00 89 973.3
20260902083007 84 246 0.0 0.0 0.00 0.00 0.00 89 973.3
20260902082503 84 227 0.0 0.0 0.00 0.00 0.00 90 973.0
20260902081959 84 226 0.0 0.0 0.00 0.00 0.00 92 973.2
20260902081455 84 199 0.0 0.0 0.00 0.00 0.00 89 973.3
20260902080949 84 219 0.0 0.0 0.00 0.00 0.00 91 973.1
20260902080446 84 239 0.0 0.0 0.00 0.00 0.00 90 973.2
20260902075945 84 238 0.0 0.0 0.00 0.00 0.00 89 973.3
20260902075441 84 239 0.0 0.0 0.00 0.00 0.00 89 973.4
20260902074936 85 240 0.0 0.0 0.00 0.00 0.00 90 973.4